Location: Esp�n
(42.4593°N, 0.2047°W)
Time: 11:47:20
(UTC+00:00)

SL-4 R/B - Pass Details

Date: 07 June 2020
Orbit: 428 x 666 km, 51.6° (Epoch: 11 July)

Event Time Altitude Azimuth Distance (km) Brightness Sun altitude
Rises 02:46:47 0° 301° (WNW) 3,001 5.7 -14.2°
Reaches altitude 10° 02:49:13 10° 296° (WNW) 2,075 4.8 -13.9°
Maximum altitude 02:53:51 50° 222° (SW) 820 2.5 -13.4°
Drops below altitude 10° 02:58:16 10° 147° (SSE) 1,973 4.7 -12.9°
Sets 03:00:32 0° 142° (SE) 2,839 5.6 -12.6°
